[[{"header":{"parameterUnit":"m.s-1","parameterCategory":1,"la1":30.2991,"la2":30.254,"lo1":-89.0895,"lo2":-89.0444,"dy":0.0017,"dx":0.0017,"nx":28,"ny":28,"refTime":"2024-08-04T03:00:00:Z","depth":0,"parameterNumber":2,"parameterNumberName":"U-component_of_WINDS"},"data":[0,0,0,0,0,0,0,0,0,0,0,0,0,0,0,0,0,0,0,0,0,0,0,0,0,0,0,0,0,0,0,0,0,0,0,0,0,0,0,0,0,0,0,0,0,0,0,0,0,0,0,0,0,0,0,0,0,0,-0.2731,-0.2732,0,-0.2777,-0.2778,-0.2779,-0.2755,-0.2754,-0.2752,-0.2751,-0.2803,-0.2806,-0.2808,0,0,0,0,0,0,0,0,0,0,0,0,0,-0.2628,-0.263,-0.2731,-0.2732,-0.2732,-0.2777,-0.2778,-0.2779,-0.2755,-0.2754,-0.2752,-0.2751,-0.2803,-0.2806,-0.2809,0,0,0,0,0,0,0,0,0,0,0,0,0,-0.2674,-0.2631,-0.2731,-0.2726,-0.2726,-0.2777,-0.2778,-0.2779,-0.2755,-0.2753,-0.2752,-0.275,-0.2802,-0.2805,-0.2809,-0.287,0,0,-0.2821,-0.2822,0,0,0,0,0,0,0,0,-0.2671,-0.2677,-0.2726,-0.2726,-0.2726,-0.2758,-0.2761,-0.281,-0.2756,-0.2744,-0.2751,-0.2749,-0.279,-0.2795,-0.2808,-0.2872,-0.2874,-0.2821,-0.2823,-0.2825,-0.2826,0,0,0,0,0,0,0,-0.2668,-0.2675,-0.275,-0.2727,-0.2727,-0.2723,-0.2728,-0.277,-0.2777,-0.2745,-0.2744,-0.2749,-0.279,-0.2804,-0.2809,-0.2875,-0.2821,-0.2824,-0.2827,-0.2828,-0.2995,-0.2997,0,0,0,0,0,0,-0.2664,-0.2673,-0.2748,-0.2751,-0.2693,-0.2726,-0.2731,-0.275,-0.2777,-0.2779,-0.2751,-0.2748,-0.2799,-0.2804,-0.2811,-0.2885,-0.2825,-0.2829,-0.2831,-0.2993,-0.2995,-0.2998,0,0,0,0,0,0,-0.2662,-0.2671,-0.2746,-0.2712,-0.2721,-0.273,-0.2751,-0.2752,-0.2766,-0.2781,-0.2783,-0.2763,-0.2797,-0.2805,-0.2856,-0.2887,-0.283,-0.2834,-0.299,-0.2994,-0.2997,-0.3034,0,0,0,0,0,0,-0.2659,-0.2671,-0.2692,-0.2712,-0.2723,-0.2789,-0.2753,-0.2754,-0.2772,-0.2769,-0.2793,-0.2796,-0.2797,-0.285,-0.2859,-0.2891,-0.2837,-0.2988,-0.2992,-0.2995,-0.303,-0.3038,-0.3045,0,0,0,0,0,-0.2656,-0.2702,-0.2693,-0.2703,-0.275,-0.279,-0.2797,-0.2795,-0.2775,-0.2798,-0.2808,-0.2795,-0.2882,-0.2855,-0.2866,-0.2899,-0.2986,-0.2991,-0.2995,-0.3027,-0.3037,-0.3045,0,0,0,0,0,0,-0.2686,-0.2704,-0.2695,-0.2748,-0.2768,-0.2786,-0.2815,-0.2806,-0.2833,-0.2829,-0.2828,-0.2833,-0.2886,-0.2897,-0.2868,-0.2961,-0.2931,-0.2938,-0.2951,-0.2961,-0.2968,-0.2965,-0.284,0,0,0,0,0,-0.2699,-0.2729,-0.2743,-0.2789,-0.2799,-0.2806,-0.2823,-0.2821,-0.2842,-0.285,-0.2864,-0.2886,-0.2919,-0.294,-0.2971,-0.3031,-0.3038,-0.306,-0.3067,-0.3073,-0.308,-0.3116,-0.3126,-0.3013,-0.3013,-0.3013,0,0,-0.2726,-0.2739,-0.2759,-0.2796,-0.281,-0.2844,-0.2813,-0.2849,-0.2874,-0.2856,-0.2905,-0.2915,-0.2941,-0.2997,-0.3023,-0.3008,-0.3113,-0.3079,-0.3084,-0.3088,-0.3122,-0.3133,-0.3142,-0.3017,-0.3016,-0.3016,0,0,-0.2792,-0.2804,-0.2845,-0.286,-0.2883,-0.2887,-0.2897,-0.2917,-0.2923,-0.2972,-0.296,-0.2991,-0.3046,-0.3065,-0.3082,-0.3158,-0.3148,-0.3168,-0.3207,-0.3242,-0.3251,-0.3259,-0.3288,-0.3299,-0.3174,-0.3174,-0.3174,0,-0.2824,-0.2871,-0.2867,-0.2904,-0.2922,-0.2907,-0.2949,-0.2965,-0.2997,-0.3011,-0.2993,-0.3064,-0.308,-0.3142,-0.316,-0.3173,-0.3187,-0.3165,-0.325,-0.3258,-0.3265,-0.3293,-0.3304,-0.3176,-0.3176,-0.3176,-0.3176,0,-0.291,-0.2943,-0.2973,-0.3004,-0.3025,-0.3065,-0.3069,-0.3091,-0.3087,-0.3094,-0.3145,-0.3163,-0.3198,-0.3212,-0.3209,-0.3275,-0.3265,-0.3249,-0.3219,-0.3278,-0.3305,-0.3315,-0.318,-0.3179,-0.3178,-0.3178,0,0,-0.2996,-0.3025,-0.3036,-0.3051,-0.3075,-0.3102,-0.3142,-0.3175,-0.3196,-0.3219,-0.3254,-0.3302,-0.3288,-0.3307,-0.3306,-0.3336,-0.3398,-0.3317,-0.3317,-0.3333,-0.3475,-0.3488,-0.35,-0.3391,-0.3393,-0.3395,-0.3473,0,-0.3066,-0.3134,-0.3132,-0.3197,-0.323,-0.3216,-0.3251,-0.3272,-0.328,-0.331,-0.3319,-0.3354,-0.3331,-0.3343,-0.3372,-0.3384,-0.3427,-0.3378,-0.3427,-0.3428,-0.3422,-0.3514,-0.3527,-0.36,-0.3483,-0.3485,-0.3486,0,-0.3155,-0.3181,-0.3249,-0.327,-0.3284,-0.3315,-0.3347,-0.3375,-0.3399,-0.3403,-0.3425,-0.342,-0.3463,-0.3431,-0.3493,-0.346,-0.348,-0.3489,-0.3492,-0.3498,-0.3462,-0.3524,-0.3623,-0.3635,-0.3502,-0.3501,-0.35,0,-0.3214,-0.3266,-0.3313,-0.3326,-0.3352,-0.3375,-0.3387,-0.3409,-0.343,-0.3458,-0.3472,-0.3505,-0.3524,-0.3551,-0.3556,-0.3532,-0.3619,-0.3586,-0.3625,-0.3625,-0.3645,-0.3644,-0.3751,-0.3655,-0.3655,-0.3655,-0.3655,0,-0.3293,-0.3335,-0.334,-0.337,-0.3418,-0.3417,-0.3465,-0.3476,-0.3495,-0.3529,-0.3519,-0.3551,-0.3554,-0.3588,-0.3592,-0.3644,-0.3653,-0.3659,-0.366,-0.3661,-0.366,-0.3675,-0.367,-0.3658,-0.3657,-0.3657,-0.3656,0,-0.3367,-0.3371,-0.3423,-0.3443,-0.345,-0.3485,-0.3503,-0.3533,-0.354,-0.3582,-0.3592,-0.3604,-0.3644,-0.3651,-0.3697,-0.37,-0.3763,-0.3758,-0.3755,-0.3755,-0.3794,-0.3791,-0.3916,-0.3933,-0.3824,-0.3825,-0.3826,0,-0.3417,-0.3449,-0.3474,-0.3495,-0.3508,-0.3541,-0.3563,-0.3564,-0.3587,-0.3617,-0.3644,-0.3682,-0.3712,-0.3776,-0.3791,-0.3827,-0.3824,-0.3865,-0.3829,-0.383,-0.3827,-0.3826,-0.383,-0.3872,-0.3874,-0.3875,-0.3875,0,-0.3507,-0.3508,-0.3538,-0.357,-0.3595,-0.362,-0.3644,-0.3662,-0.3667,-0.3693,-0.3733,-0.3756,-0.3804,-0.3843,-0.388,-0.3895,-0.3887,-0.3886,-0.3898,-0.39,-0.3897,-0.3901,-0.3775,-0.3884,-0.3883,-0.3882,-0.3882,-0.3882,-0.3572,-0.3601,-0.3623,-0.3657,-0.3675,-0.3698,-0.3728,-0.3739,-0.3771,-0.3809,-0.3808,-0.3852,-0.3878,-0.3926,-0.3944,-0.398,-0.3967,-0.3983,-0.3987,-0.3992,-0.3996,-0.389,-0.3986,-0.3986,-0.3986,-0.3986,-0.3986,0,-0.3663,-0.3676,-0.3708,-0.3742,-0.377,-0.3758,-0.3785,-0.381,-0.3848,-0.3872,-0.3902,-0.3949,-0.3987,-0.4005,-0.4043,-0.4069,-0.4067,-0.4079,-0.4078,-0.4083,-0.4004,-0.3992,-0.4081,-0.4081,-0.4081,-0.4081,-0.4081,-0.4081,-0.3713,-0.3762,-0.3766,-0.3826,-0.3839,-0.3881,-0.3898,-0.392,-0.3939,-0.3992,-0.4023,-0.4034,-0.4056,-0.4097,-0.4132,-0.4137,-0.4152,-0.4167,-0.417,-0.4097,-0.4088,-0.4079,-0.4067,-0.417,-0.417,-0.4246,-0.4246,-0.4247]},{"header":{"parameterUnit":"m.s-1","parameterCategory":1,"la1":30.2991,"la2":30.254,"lo1":-89.0895,"lo2":-89.0444,"dy":0.0017,"dx":0.0017,"nx":28,"ny":28,"refTime":"2024-08-04T03:00:00:Z","depth":0,"parameterNumber":3,"parameterNumberName":"V-component_of_WINDS"},"data":[0,0,0,0,0,0,0,0,0,0,0,0,0,0,0,0,0,0,0,0,0,0,0,0,0,0,0,0,0,0,0,0,0,0,0,0,0,0,0,0,0,0,0,0,0,0,0,0,0,0,0,0,0,0,0,0,0,0,-4.125,-4.1251,0,-4.1321,-4.1321,-4.1322,-4.1287,-4.1285,-4.1283,-4.1281,-4.135,-4.1354,-4.1357,0,0,0,0,0,0,0,0,0,0,0,0,0,-4.108,-4.1083,-4.125,-4.1251,-4.1251,-4.1321,-4.1321,-4.1322,-4.1287,-4.1285,-4.1283,-4.1281,-4.1349,-4.1353,-4.1357,0,0,0,0,0,0,0,0,0,0,0,0,0,-4.1152,-4.1084,-4.125,-4.1242,-4.1242,-4.132,-4.1322,-4.1323,-4.1288,-4.1285,-4.1282,-4.128,-4.1348,-4.1353,-4.1358,-4.1446,0,0,-4.1374,-4.1377,0,0,0,0,0,0,0,0,-4.1148,-4.1158,-4.1242,-4.1243,-4.1243,-4.1292,-4.1287,-4.1364,-4.1288,-4.127,-4.1281,-4.1278,-4.1333,-4.1339,-4.1358,-4.1449,-4.1452,-4.1375,-4.1378,-4.138,-4.1382,0,0,0,0,0,0,0,-4.1143,-4.1155,-4.1278,-4.1244,-4.1244,-4.1234,-4.1241,-4.1301,-4.1316,-4.1272,-4.1269,-4.1278,-4.1332,-4.1353,-4.136,-4.1453,-4.1375,-4.1379,-4.1383,-4.1385,-4.1619,-4.1622,0,0,0,0,0,0,-4.1139,-4.1151,-4.1275,-4.128,-4.1188,-4.1239,-4.1248,-4.1279,-4.1315,-4.1318,-4.1281,-4.1276,-4.1346,-4.1354,-4.1362,-4.1467,-4.138,-4.1385,-4.1388,-4.1616,-4.162,-4.1623,0,0,0,0,0,0,-4.1136,-4.115,-4.1272,-4.1215,-4.123,-4.1245,-4.1281,-4.1282,-4.1303,-4.1322,-4.1324,-4.13,-4.1344,-4.1355,-4.1426,-4.1469,-4.1388,-4.1392,-4.1613,-4.1617,-4.1622,-4.1679,0,0,0,0,0,0,-4.1131,-4.1149,-4.1184,-4.1216,-4.1233,-4.1336,-4.1284,-4.1285,-4.1313,-4.1308,-4.1341,-4.1343,-4.1342,-4.1418,-4.1431,-4.1475,-4.1397,-4.1609,-4.1615,-4.162,-4.1673,-4.1684,-4.1694,0,0,0,0,0,-4.1125,-4.1196,-4.1186,-4.1201,-4.1277,-4.1339,-4.1348,-4.1347,-4.1316,-4.1351,-4.1363,-4.1342,-4.1462,-4.1425,-4.144,-4.1486,-4.1606,-4.1613,-4.162,-4.1668,-4.1682,-4.1694,0,0,0,0,0,0,-4.1168,-4.12,-4.1189,-4.1274,-4.1304,-4.1333,-4.1376,-4.1362,-4.1401,-4.1395,-4.139,-4.1398,-4.1472,-4.1486,-4.1444,-4.1573,-4.1529,-4.1539,-4.1561,-4.1575,-4.1585,-4.158,-4.1401,0,0,0,0,0,-4.1187,-4.1236,-4.1262,-4.1333,-4.1349,-4.136,-4.1387,-4.1384,-4.1414,-4.1427,-4.1444,-4.1474,-4.1518,-4.1547,-4.1589,-4.1675,-4.1681,-4.1714,-4.1724,-4.1733,-4.1742,-4.1788,-4.1803,-4.1646,-4.1646,-4.1645,0,0,-4.1227,-4.1251,-4.1282,-4.1343,-4.1366,-4.1415,-4.1371,-4.1425,-4.1462,-4.1434,-4.1503,-4.1517,-4.1549,-4.1628,-4.1664,-4.1642,-4.1787,-4.1742,-4.1749,-4.1753,-4.1796,-4.1811,-4.1824,-4.165,-4.1649,-4.1649,0,0,-4.1326,-4.135,-4.1412,-4.1436,-4.1472,-4.1479,-4.1494,-4.1525,-4.1534,-4.1603,-4.1583,-4.1626,-4.1702,-4.1726,-4.1748,-4.1857,-4.1839,-4.187,-4.1926,-4.1971,-4.1984,-4.1995,-4.2033,-4.2047,-4.1879,-4.1879,-4.1879,0,-4.1371,-4.1447,-4.1445,-4.1502,-4.1528,-4.1507,-4.157,-4.1593,-4.164,-4.1658,-4.1634,-4.173,-4.175,-4.1834,-4.1861,-4.1879,-4.1896,-4.1866,-4.1982,-4.1993,-4.2003,-4.204,-4.2054,-4.1882,-4.1882,-4.1882,-4.1881,0,-4.15,-4.1552,-4.1598,-4.1646,-4.1678,-4.1737,-4.1743,-4.1775,-4.1769,-4.1778,-4.1848,-4.1872,-4.1918,-4.1938,-4.1932,-4.2021,-4.2007,-4.1983,-4.1939,-4.2022,-4.2056,-4.207,-4.1888,-4.1886,-4.1885,-4.1884,0,0,-4.1627,-4.1674,-4.1691,-4.1712,-4.175,-4.179,-4.1848,-4.1894,-4.1922,-4.1955,-4.2002,-4.2068,-4.2046,-4.2071,-4.2068,-4.2107,-4.2191,-4.2078,-4.2079,-4.2098,-4.229,-4.2308,-4.2324,-4.218,-4.2182,-4.2184,-4.2287,0,-4.1728,-4.1831,-4.1831,-4.1925,-4.1973,-4.1954,-4.2004,-4.2032,-4.2042,-4.2083,-4.2093,-4.214,-4.2107,-4.2122,-4.2161,-4.2173,-4.2229,-4.2165,-4.2223,-4.2225,-4.2215,-4.2342,-4.2361,-4.2457,-4.2301,-4.2303,-4.2305,0,-4.186,-4.1899,-4.1998,-4.2029,-4.2049,-4.2095,-4.2137,-4.2177,-4.2208,-4.2213,-4.2241,-4.2232,-4.2289,-4.2244,-4.2322,-4.2279,-4.2302,-4.2312,-4.2315,-4.232,-4.2269,-4.235,-4.2488,-4.2502,-4.2325,-4.2324,-4.2322,0,-4.1942,-4.2019,-4.2089,-4.2107,-4.2146,-4.2178,-4.2195,-4.2224,-4.2252,-4.2289,-4.2306,-4.2349,-4.2372,-4.2405,-4.2407,-4.2374,-4.2486,-4.2441,-4.249,-4.2491,-4.2515,-4.2513,-4.2658,-4.2531,-4.253,-4.253,-4.253,0,-4.2055,-4.2116,-4.2126,-4.2169,-4.2236,-4.2236,-4.2303,-4.2317,-4.2343,-4.2387,-4.2372,-4.2413,-4.2413,-4.2455,-4.2457,-4.2522,-4.2532,-4.2537,-4.2536,-4.2538,-4.2537,-4.2553,-4.2546,-4.2534,-4.2533,-4.2532,-4.2532,0,-4.2158,-4.2168,-4.2242,-4.2273,-4.2282,-4.233,-4.2356,-4.2395,-4.2404,-4.246,-4.2473,-4.2486,-4.2535,-4.254,-4.2596,-4.2597,-4.2675,-4.2668,-4.2665,-4.2664,-4.2713,-4.2709,-4.2873,-4.2894,-4.2753,-4.2755,-4.2756,0,-4.223,-4.2276,-4.2312,-4.2342,-4.2361,-4.2408,-4.2437,-4.2438,-4.2468,-4.2507,-4.2542,-4.259,-4.2628,-4.2706,-4.272,-4.2763,-4.2756,-4.2811,-4.2762,-4.2763,-4.2757,-4.2754,-4.2758,-4.282,-4.2822,-4.2823,-4.2824,0,-4.2355,-4.2357,-4.24,-4.2445,-4.248,-4.2514,-4.2547,-4.2571,-4.2576,-4.2611,-4.2661,-4.2691,-4.2749,-4.2796,-4.2838,-4.2854,-4.284,-4.2839,-4.2853,-4.2855,-4.2851,-4.2854,-4.2691,-4.2835,-4.2834,-4.2833,-4.2833,-4.2832,-4.2444,-4.2484,-4.2516,-4.2564,-4.2589,-4.262,-4.2659,-4.2674,-4.2716,-4.2764,-4.2762,-4.2817,-4.2846,-4.2902,-4.2922,-4.2964,-4.2946,-4.2966,-4.2971,-4.2975,-4.298,-4.2845,-4.2972,-4.2971,-4.2971,-4.2971,-4.2971,0,-4.2568,-4.2588,-4.2632,-4.2679,-4.2716,-4.2701,-4.2736,-4.2768,-4.2817,-4.2847,-4.2885,-4.2942,-4.2988,-4.3006,-4.305,-4.3081,-4.3075,-4.3092,-4.309,-4.3094,-4.2994,-4.2978,-4.3096,-4.3096,-4.3096,-4.3096,-4.3096,-4.3096,-4.2637,-4.2705,-4.2711,-4.2791,-4.281,-4.2865,-4.2886,-4.2914,-4.2938,-4.3003,-4.3042,-4.3054,-4.3078,-4.3124,-4.3165,-4.3169,-4.3186,-4.3206,-4.3207,-4.3114,-4.3101,-4.3089,-4.3073,-4.321,-4.321,-4.3303,-4.3304,-4.3304]}]]